Flag for Chile Weather past 2 weeks in Puerto Williams, Chile

Now
41 °F

Passing clouds.


Feels Like: 32 °F
Forecast: 38 / 45 °F
Wind: 18 mph from North

Location: Ushuaia Aerodrome

Current Time: Sep 22, 2014 at 6:22:08 AM

Latest Report: Sep 22, 2014 at 6:00 AM


Visibility: N/A

Pressure: 29.12 "Hg

Humidity: 70%

Dew point: 32 °F

Location of Puerto WilliamsLocation

Historic Weather in Puerto Williams — Graph

°F

Puerto Williams temperature yesterday

Maximum temperature yesterday: 43 °F (at 1:00 AM)
Minimum temperature yesterday: 39 °F (at 7:00 AM)
Average temperature yesterday: 41 °F

Past Weeks' High & Low Weather Summary

 TemperatureHumidityPressure
High140 °F (Sep 11, 5:00 PM)100% (Sep 7, 6:00 AM)30.12 "Hg (Sep 7, 6:00 AM)
Low32 °F (Sep 7, 6:00 AM)3% (Sep 11, 5:00 PM)28.82 "Hg (Sep 11, 10:00 PM)
Average40 °F75%29.35 "Hg
* Reported Sep 7 6:00 AM — Sep 22 5:00 AM, Puerto Williams, Weather by CustomWeather, © 2014

Note: Actual official high and low records may vary slightly from our data, if they occured in-between our weather recording intervals... More about our weather records

Advertising

Puerto Williams weather history for previous 24 hours

 ConditionsComfort  
Time TempWeatherWind HumidityBarometerVisibility
5:00 AM
Sep 22
39 °FPassing clouds.3 mph87%29.12 "HgN/A
4:00 AM39 °FPassing clouds.No wind87%29.12 "HgN/A
3:00 AM39 °FPassing clouds.8 mph87%29.12 "HgN/A
1:00 AM37 °FPartly cloudy.3 mph75%29.12 "HgN/A
12:00 AM37 °FScattered showers. Partly cloudy.9 mph81%29.03 "HgN/A
11:00 PM
Sep 21
39 °FPartly cloudy.12 mph75%29.03 "HgN/A
10:00 PM39 °FScattered showers. Partly cloudy.10 mph75%29.06 "HgN/A
9:00 PM41 °FScattered showers. Overcast.15 mph76%29.06 "HgN/A
8:00 PM41 °FDrizzle. Overcast.17 mph81%29.09 "HgN/A
7:00 PM39 °FDrizzle. Overcast.21 mph87%29.09 "HgN/A
6:00 PM41 °FRain. Cloudy.9 mph81%29.18 "Hg5 mi
5:00 PM41 °FRain. Cloudy.6 mph93%29.21 "Hg3 mi
4:00 PM41 °FRain. Broken clouds.18 mph87%29.27 "Hg3 mi
3:00 PM41 °FDrizzle. Broken clouds.10 mph87%29.30 "HgN/A
2:00 PM39 °FDrizzle. Broken clouds.21 mph93%29.36 "HgN/A
1:00 PM41 °FDrizzle. Broken clouds.21 mph87%29.39 "HgN/A
12:00 PM41 °FDrizzle. Partly sunny.20 mph76%29.42 "HgN/A
10:00 AM43 °FDrizzle. Partly sunny.22 mph76%29.47 "HgN/A
9:00 AM39 °FDrizzle. Partly sunny.15 mph87%29.53 "HgN/A
8:00 AM41 °FDrizzle. Partly sunny.22 mph61%29.56 "HgN/A
7:00 AM39 °FDrizzle. Partly sunny.20 mph65%29.56 "HgN/A
6:00 AM41 °FPassing clouds.16 mph66%29.59 "HgN/A
Weather by CustomWeather, © 2014

See weather overviewHow to use our weather pages